FENGYUN 1C DEB, 37925

Orbit data source: Space-Track

FENGYUN 1C DEB, 37925 is space debris in SSO originally from a launch on Mon, 10 May 1999 UTC launched from the Taiyaun Space Center, China (TSC). Fengyun 1C debris stems from the Chinese weather satellite Fengyun-1C, which was intentionally destroyed by a Chinese anti-satellite missile in 2007. This event dramatically increased the amount of space debris, with thousands of trackable fragments posing hazards to satellites and human spaceflight. The Fengyun 1C debris cloud has become a focal point in discussions about space sustainability and the need for international regulations to prevent the creation of new debris.

Loading next visibility...
Identifier
37925, 1999-025EPA
Orbit
SSO
Country
Flag of CNCN / PRC
Related business
Manufacturer
Unknown
Mission
Spacecraft
Bus & Motor
Unknown
Mass
Unknown
Launch date (UTC)
1999-05-10 (27 years ago)
Launch vehicle
Unknown
Launch site
Taiyaun Space Center, China (TSC)
Object type
Payload
Rocket body
Debris
Shape & HBR
Unknown shape, 0.1 m
Radar Cross Section
Small (<0.1 m²)

Expand to show TLE details & history
Last TLE update: 4 days ago

TLE from 4 days ago
0 FENGYUN 1C DEB
1 37925U 99025EPA 26259.49698254  .00007851  00000-0  88401-3 0  9997
2 37925  99.0592 171.2649 0048892 183.7084 176.3773 14.86110477698011
Epoch: 2026-09-16T11:55Z
TLE epoch observation values (Epoch: 2026-09-16T11:55:39.291Z)
Latitude
0.00005°
Longitude
-3.09655°
Altitude
647.202 km
Speed
7.516 km/s
True Right ascension
11h 25m 03s
True Declination
0° 00' 00"
Sunlit
Object was in daylight at epoch
Visualization orbit readout
Latitude
Unknown
Longitude
Unknown
Altitude
Unknown
Speed
Unknown
Apparent Right ascension
Unknown
Apparent Declination
Unknown
Sunlit
N/A
Visualization observer readout
Local Sidereal Time
14:02:08
Azimuth
Unknown
Elevation
Unknown
Doppler factor
Unknown
Orbital elements
Apogee altitude
641.343 km
Perigee altitude
573.038 km
Semi-major axis
6,985.328 km
Eccentricity
0.00489
Inclination
99.0592°
RAAN
171.2649°
Arg. of periapsis
183.7084°
True anomaly
176.41249°
Mean anomaly
176.3773°
Eccentric anomaly
176.39491°
Mean motion
3.7176 °/min
Orbital period
96.84 mins
BSTAR
0.00088401
Loading maneuver chart data...
Computing Atmospheric mass density...

Documentation

Showing up to 5 results
|